• In Russia
  • List of Countries
  • For 7 days
  • Water Temperature
  • Satellite Maps
  • Weather Map
  • Weather Widgets
  • user-avatar
    Login

    Hourly Weather Bischofshofen

    Today, 23 February, Saturday

    Time Temperature Precipitation Wind Pressure Humidity
    00:00 +1°C° 0.1 mm 2 mps 709 mmHg 97%
    01:00 +1°C° 0 mm 2 mps 710 mmHg 98%
    02:00 +1°C° 0 mm 1 mps 710 mmHg 98%
    03:00 0°C° 0 mm 1 mps 710 mmHg 97%
    04:00 -1°C° 0 mm 1 mps 710 mmHg 97%
    05:00 -2°C° 0 mm 1 mps 710 mmHg 96%
    06:00 -3°C° 0 mm 1 mps 710 mmHg 95%
    07:00 -6°C° 0 mm 0 mps 710 mmHg 95%
    08:00 -4°C° 0 mm 0 mps 710 mmHg 87%
    09:00 -1°C° 0 mm 1 mps 710 mmHg 79%
    10:00 +1°C° 0 mm 1 mps 710 mmHg 71%
    11:00 +2°C° 0 mm 1 mps 710 mmHg 72%
    12:00 +3°C° 0 mm 1 mps 710 mmHg 73%
    13:00 +3°C° 0 mm 1 mps 710 mmHg 73%
    14:00 +3°C° 0 mm 1 mps 710 mmHg 74%
    15:00 +3°C° 0 mm 1 mps 709 mmHg 75%
    16:00 +3°C° 0 mm 1 mps 709 mmHg 76%
    17:00 +1°C° 0 mm 1 mps 709 mmHg 74%
    18:00 -1°C° 0 mm 1 mps 709 mmHg 71%
    19:00 -3°C° 0 mm 1 mps 709 mmHg 69%
    20:00 -3°C° 0 mm 1 mps 709 mmHg 66%
    21:00 -3°C° 0 mm 1 mps 709 mmHg 62%
    22:00 -4°C° 0 mm 1 mps 709 mmHg 59%
    23:00 -3°C° 0 mm 1 mps 709 mmHg 58%

    Tomorrow, 24 February, Sunday

    Time Temperature Precipitation Wind Pressure Humidity
    00:00 -3°C° 0 mm 1 mps 709 mmHg 57%
    01:00 -3°C° 0 mm 1 mps 709 mmHg 56%
    02:00 -3°C° 0 mm 1 mps 709 mmHg 56%
    03:00 -3°C° 0 mm 1 mps 709 mmHg 57%
    04:00 -2°C° 0 mm 1 mps 709 mmHg 57%
    05:00 -2°C° 0 mm 1 mps 709 mmHg 57%
    06:00 -2°C° 0 mm 1 mps 709 mmHg 58%
    07:00 -2°C° 0 mm 1 mps 709 mmHg 58%
    08:00 0°C° 0 mm 1 mps 709 mmHg 66%
    09:00 +2°C° 0 mm 0 mps 709 mmHg 74%
    10:00 +5°C° 0 mm 0 mps 710 mmHg 82%
    11:00 +5°C° 0 mm 0 mps 710 mmHg 86%
    12:00 +6°C° 0 mm 1 mps 709 mmHg 90%
    13:00 +7°C° 0 mm 1 mps 709 mmHg 93%
    14:00 +7°C° 0 mm 1 mps 709 mmHg 94%
    15:00 +6°C° 0 mm 1 mps 709 mmHg 94%
    16:00 +6°C° 0 mm 1 mps 708 mmHg 95%
    17:00 +5°C° 0 mm 1 mps 709 mmHg 92%
    18:00 +2°C° 0 mm 0 mps 709 mmHg 88%
    19:00 0°C° 0 mm 0 mps 709 mmHg 85%
    20:00 0°C° 0 mm 0 mps 709 mmHg 85%
    21:00 0°C° 0 mm 0 mps 709 mmHg 84%
    22:00 +1°C° 0 mm 1 mps 710 mmHg 83%
    23:00 +1°C° 0 mm 1 mps 710 mmHg 84%

    Day after tomorrow, 25 February, Monday

    Time Temperature Precipitation Wind Pressure Humidity
    00:00 +1°C° 0 mm 1 mps 710 mmHg 85%
    01:00 +1°C° 0 mm 1 mps 710 mmHg 86%
    02:00 +1°C° 0 mm 1 mps 710 mmHg 86%
    03:00 +1°C° 0 mm 1 mps 709 mmHg 86%
    04:00 +1°C° 0 mm 1 mps 709 mmHg 87%
    05:00 +1°C° 0 mm 1 mps 709 mmHg 87%
    06:00 +1°C° 0 mm 1 mps 709 mmHg 87%
    07:00 +1°C° 0 mm 1 mps 709 mmHg 87%
    08:00 +3°C° 0 mm 1 mps 709 mmHg 90%
    09:00 +4°C° 0 mm 0 mps 710 mmHg 93%
    10:00 +6°C° 0 mm 0 mps 710 mmHg 95%
    11:00 +6°C° 0 mm 0 mps 710 mmHg 96%
    12:00 +7°C° 0 mm 0 mps 709 mmHg 96%
    13:00 +7°C° 0 mm 0 mps 709 mmHg 96%
    14:00 +7°C° 0 mm 0 mps 709 mmHg 96%
    15:00 +7°C° 0 mm 0 mps 709 mmHg 97%
    16:00 +6°C° 0 mm 0 mps 709 mmHg 97%
    17:00 +5°C° 0 mm 0 mps 709 mmHg 96%
    18:00 +5°C° 0 mm 1 mps 709 mmHg 94%
    19:00 +4°C° 0 mm 1 mps 709 mmHg 93%
    20:00 +4°C° 0 mm 1 mps 709 mmHg 91%
    21:00 +3°C° 0 mm 1 mps 709 mmHg 88%
    22:00 +3°C° 0 mm 1 mps 709 mmHg 86%
    23:00 +3°C° 0 mm 1 mps 709 mmHg 85%

    26 February, Tuesday

    Time Temperature Precipitation Wind Pressure Humidity
    00:00 +3°C° 0 mm 1 mps 709 mmHg 84%
    01:00 +2°C° 0 mm 1 mps 709 mmHg 84%
    02:00 +2°C° 0 mm 1 mps 709 mmHg 83%
    03:00 +2°C° 0 mm 1 mps 708 mmHg 82%
    04:00 +2°C° 0 mm 1 mps 708 mmHg 81%
    05:00 +2°C° 0 mm 1 mps 708 mmHg 79%
    06:00 +2°C° 0 mm 1 mps 708 mmHg 77%
    07:00 +2°C° 0 mm 1 mps 708 mmHg 75%
    08:00 +4°C° 0 mm 1 mps 708 mmHg 81%
    09:00 +6°C° 0 mm 1 mps 708 mmHg 86%
    10:00 +8°C° 0 mm 1 mps 708 mmHg 91%
    11:00 +8°C° 0 mm 1 mps 708 mmHg 92%
    12:00 +9°C° 0 mm 1 mps 707 mmHg 92%
    13:00 +9°C° 0 mm 1 mps 707 mmHg 93%
    14:00 +9°C° 0 mm 1 mps 707 mmHg 93%
    15:00 +8°C° 0 mm 1 mps 707 mmHg 94%
    16:00 +8°C° 0 mm 1 mps 707 mmHg 95%
    17:00 +7°C° 0 mm 1 mps 707 mmHg 91%
    18:00 +5°C° 0 mm 1 mps 707 mmHg 87%
    19:00 +4°C° 0 mm 1 mps 707 mmHg 83%
    20:00 +4°C° 0 mm 1 mps 707 mmHg 81%
    21:00 +3°C° 0 mm 1 mps 707 mmHg 79%
    22:00 +3°C° 0 mm 1 mps 707 mmHg 77%
    23:00 +3°C° 0 mm 1 mps 707 mmHg 75%

    27 February, Wednesday

    Time Temperature Precipitation Wind Pressure Humidity
    00:00 +3°C° 0 mm 1 mps 707 mmHg 73%
    01:00 +3°C° 0 mm 1 mps 707 mmHg 71%
    02:00 +3°C° 0 mm 1 mps 707 mmHg 71%
    03:00 +3°C° 0 mm 1 mps 707 mmHg 70%
    04:00 +3°C° 0 mm 1 mps 707 mmHg 69%
    05:00 +3°C° 0 mm 1 mps 707 mmHg 69%
    06:00 +3°C° 0 mm 1 mps 707 mmHg 69%
    07:00 +3°C° 0 mm 1 mps 707 mmHg 69%
    08:00 +5°C° 0 mm 1 mps 707 mmHg 77%
    09:00 +7°C° 0 mm 1 mps 707 mmHg 85%
    10:00 +8°C° 0 mm 0 mps 706 mmHg 92%
    11:00 +9°C° 0 mm 0 mps 706 mmHg 92%
    12:00 +10°C° 0 mm 0 mps 706 mmHg 92%
    13:00 +10°C° 0 mm 0 mps 705 mmHg 92%
    14:00 +10°C° 0 mm 0 mps 705 mmHg 93%
    15:00 +10°C° 0 mm 0 mps 704 mmHg 94%
    16:00 +10°C° 0 mm 1 mps 704 mmHg 95%
    17:00 +9°C° 0 mm 1 mps 704 mmHg 89%
    18:00 +8°C° 0 mm 1 mps 704 mmHg 83%
    19:00 +7°C° 0 mm 1 mps 704 mmHg 77%
    20:00 +6°C° 0 mm 1 mps 704 mmHg 75%
    21:00 +6°C° 0 mm 1 mps 704 mmHg 72%
    22:00 +6°C° 0 mm 1 mps 704 mmHg 69%
    23:00 +6°C° 0 mm 1 mps 704 mmHg 69%

    28 February, Thursday

    Time Temperature Precipitation Wind Pressure Humidity
    00:00 +5°C° 0 mm 1 mps 704 mmHg 68%
    01:00 +5°C° 0 mm 1 mps 703 mmHg 68%
    02:00 +5°C° 0 mm 1 mps 703 mmHg 69%
    03:00 +5°C° 0 mm 1 mps 703 mmHg 71%
    04:00 +5°C° 0 mm 1 mps 702 mmHg 73%
    05:00 +5°C° 0 mm 1 mps 702 mmHg 74%
    06:00 +5°C° 0 mm 1 mps 702 mmHg 75%
    07:00 +5°C° 0 mm 1 mps 702 mmHg 76%
    08:00 +6°C° 0 mm 1 mps 702 mmHg 81%
    09:00 +8°C° 0 mm 1 mps 702 mmHg 86%
    10:00 +9°C° 0 mm 1 mps 702 mmHg 90%
    11:00 +10°C° 0 mm 1 mps 702 mmHg 89%
    12:00 +10°C° 0 mm 2 mps 701 mmHg 88%
    13:00 +10°C° 0 mm 2 mps 701 mmHg 87%
    14:00 +10°C° 0 mm 2 mps 700 mmHg 87%
    15:00 +9°C° 0 mm 2 mps 700 mmHg 87%
    16:00 +9°C° 0 mm 2 mps 700 mmHg 87%
    17:00 +8°C° 0 mm 2 mps 700 mmHg 88%
    18:00 +7°C° 0 mm 2 mps 700 mmHg 89%
    19:00 +6°C° 0 mm 2 mps 701 mmHg 90%
    20:00 +6°C° 0.2 mm 2 mps 701 mmHg 92%
    21:00 +6°C° 0.2 mm 2 mps 702 mmHg 94%
    22:00 +6°C° 0.2 mm 2 mps 702 mmHg 96%
    23:00 +5°C° 0.2 mm 2 mps 702 mmHg 96%
    Show more